K8SWR-13 Weather Reports


Display with metric or nautical units.
time (UTC)temp
F
wind
direction
speed
MPH
gust
MPH
rain 1hr
in
rain 24hr
in
rain mn
in
humidity
%
barometer
mb
20260503193632 61 270 7.0 17.0 0.00 0.00 0.00 44 1006.8
20260503193134 61 180 9.0 17.0 0.00 0.00 0.00 43 1006.8
20260503192632 61 225 4.0 17.0 0.00 0.00 0.00 43 1006.8
20260503192132 62 248 14.0 17.0 0.00 0.00 0.00 42 1006.8
20260503191633 62 225 14.0 16.0 0.00 0.00 0.00 41 1006.8
20260503191132 63 225 6.0 16.0 0.00 0.00 0.00 40 1007.1
20260503190632 61 180 4.0 16.0 0.00 0.00 0.00 41 1007.1
20260503190132 61 225 6.0 16.0 0.00 0.00 0.00 41 1007.1
20260503185632 62 0 7.0 16.0 0.00 0.00 0.00 40 1007.1
20260503185132 62 0 7.0 16.0 0.00 0.00 0.00 41 1007.1
20260503184633 62 293 11.0 16.0 0.00 0.00 0.00 42 1007.1
20260503184132 62 45 6.0 14.0 0.00 0.00 0.00 43 1007.1
20260503183632 62 293 6.0 14.0 0.00 0.00 0.00 43 1007.5
20260503183133 62 158 4.0 14.0 0.00 0.00 0.00 43 1007.5
20260503182632 60 23 6.0 16.0 0.00 0.00 0.00 44 1007.5
20260503182132 62 338 3.0 16.0 0.00 0.00 0.00 45 1007.8
20260503181633 62 270 6.0 16.0 0.00 0.00 0.00 44 1007.8
20260503181134 62 315 11.0 16.0 0.00 0.00 0.00 42 1008.1
20260503180633 61 158 6.0 16.0 0.00 0.00 0.00 43 1008.1
20260503180133 62 248 14.0 16.0 0.00 0.00 0.00 44 1008.1
20260503175635 61 68 5.0 16.0 0.00 0.00 0.00 43 1008.1
20260503175133 61 248 6.0 16.0 0.00 0.00 0.00 43 1008.1
20260503174632 61 180 7.0 16.0 0.00 0.00 0.00 42 1008.1
20260503174132 62 203 11.0 16.0 0.00 0.00 0.00 41 1008.1
20260503173632 60 203 6.0 16.0 0.00 0.00 0.00 41 1008.5
20260503173135 59 225 9.0 16.0 0.00 0.00 0.00 42 1008.5
20260503172633 60 203 16.0 16.0 0.00 0.00 0.00 41 1008.5
20260503172132 59 203 11.0 14.0 0.00 0.00 0.00 43 1008.8
20260503171632 59 225 11.0 14.0 0.00 0.00 0.00 42 1008.8
20260503171132 58 270 9.0 14.0 0.00 0.00 0.00 44 1008.8
20260503170635 58 248 11.0 14.0 0.00 0.00 0.00 44 1008.8
20260503170134 59 270 7.0 13.0 0.00 0.00 0.00 43 1009.1
20260503160132 54 203 5.0 12.0 0.00 0.00 0.00 49 1009.8
20260503150635 53 203 3.0 11.0 0.00 0.00 0.00 50 1010.2
20260503150135 52 270 4.0 11.0 0.00 0.00 0.00 51 1010.2
20260503140133 50 270 4.0 8.0 0.00 0.00 0.00 54 1010.5
20260503131135 48 270 4.0 9.0 0.00 0.00 0.00 55 1010.2
20260503130635 48 225 4.0 9.0 0.00 0.00 0.00 57 1010.2
20260503130135 47 203 2.0 9.0 0.00 0.00 0.00 56 1010.5
20260503120133 43 0 4.0 6.0 0.00 0.00 0.00 64 1010.2
20260503110632 39 248 2.0 4.0 0.00 0.00 0.00 71 1010.2
20260503110132 39 68 1.0 5.0 0.00 0.00 0.00 72 1010.2
20260503100133 39 203 1.0 5.0 0.00 0.00 0.00 70 1010.2
20260503090132 39 270 4.0 4.0 0.00 0.00 0.00 68 1010.5
20260503081633 39 113 2.0 4.0 0.00 0.00 0.00 66 1010.8
20260503081132 39 225 0.0 4.0 0.00 0.00 0.00 67 1010.8
20260503080634 39 225 0.0 4.0 0.00 0.00 0.00 66 1010.8
20260503080132 39 45 2.0 4.0 0.00 0.00 0.00 66 1010.8
20260503072633 38 45 0.0 4.0 0.00 0.00 0.00 65 1010.8
20260503072133 39 135 0.0 4.0 0.00 0.00 0.00 64 1011.2
20260503071632 37 293 0.0 2.0 0.00 0.00 0.00 67 1011.2
20260503071132 37 113 0.0 2.0 0.00 0.00 0.00 67 1011.2
20260503070632 37 270 0.0 2.0 0.00 0.00 0.00 65 1011.2
20260503070134 37 68 0.0 2.0 0.00 0.00 0.00 67 1011.2
20260503060145 37 225 0.0 2.0 0.00 0.00 0.00 68 1011.9
20260503054634 38 225 0.0 2.0 0.00 0.00 0.00 68 1012.2
20260503054133 37 293 0.0 2.0 0.00 0.00 0.00 68 1012.2
20260503053635 37 225 1.0 2.0 0.00 0.00 0.00 67 1012.2
20260503053132 37 203 0.0 2.0 0.00 0.00 0.00 68 1012.2
20260503052632 37 113 0.0 2.0 0.00 0.00 0.00 68 1012.2
20260503052134 37 225 0.0 2.0 0.00 0.00 0.00 67 1012.2
20260503051633 37 180 0.0 2.0 0.00 0.00 0.00 67 1012.2
20260503051132 37 225 0.0 2.0 0.00 0.00 0.00 68 1012.2
20260503050633 37 225 0.0 2.0 0.00 0.00 0.00 66 1012.2
20260503050132 37 225 0.0 2.0 0.00 0.00 0.00 67 1012.2
20260503045632 38 225 0.0 2.0 0.00 0.00 0.00 68 1012.2
20260503045132 38 135 0.0 2.0 0.00 0.00 0.00 68 1012.2
20260503044633 38 225 2.0 2.0 0.00 0.00 0.00 71 1012.5
20260503044133 38 203 2.0 2.0 0.00 0.00 0.00 70 1012.5
20260503043638 38 248 0.0 2.0 0.00 0.00 0.00 70 1012.5
20260503043133 38 225 0.0 2.0 0.00 0.00 0.00 69 1012.5
20260503042635 38 225 0.0 2.0 0.00 0.00 0.00 69 1012.5
20260503042132 37 225 2.0 2.0 0.00 0.00 0.00 70 1012.5
20260503041633 37 248 2.0 2.0 0.00 0.00 0.00 70 1012.5
20260503041133 37 225 0.0 2.0 0.00 0.00 0.00 69 1012.5
20260503040633 37 225 0.0 2.0 0.00 0.00 0.00 68 1012.5
20260503040133 37 225 0.0 2.0 0.00 0.00 0.00 67 1012.5
20260503035632 37 248 0.0 2.0 0.00 0.00 0.00 67 1012.5
20260503035133 37 203 1.0 2.0 0.00 0.00 0.00 67 1012.5
20260503034632 37 203 0.0 2.0 0.00 0.00 0.00 66 1012.5
20260503034133 37 203 2.0 2.0 0.00 0.00 0.00 67 1012.5
20260503033632 38 225 0.0 2.0 0.00 0.00 0.00 67 1012.5
20260503033132 38 248 0.0 2.0 0.00 0.00 0.00 64 1012.5
20260503032632 38 225 0.0 2.0 0.00 0.00 0.00 65 1012.5
20260503032135 38 225 0.0 2.0 0.00 0.00 0.00 65 1012.9
20260503031632 38 203 2.0 2.0 0.00 0.00 0.00 64 1012.9
20260503031132 38 225 0.0 2.0 0.00 0.00 0.00 64 1012.9
20260503030633 38 225 0.0 2.0 0.00 0.00 0.00 63 1012.9
20260503030133 38 225 0.0 2.0 0.00 0.00 0.00 65 1012.9
20260503025633 38 225 0.0 2.0 0.00 0.00 0.00 62 1012.9
20260503025132 38 225 0.0 2.0 0.00 0.00 0.00 62 1012.9
20260503024633 39 203 1.0 2.0 0.00 0.00 0.00 62 1012.9
20260503024133 39 225 2.0 2.0 0.00 0.00 0.00 59 1012.9
20260503023633 39 225 0.0 2.0 0.00 0.00 0.00 58 1012.9
20260503023132 39 203 0.0 2.0 0.00 0.00 0.00 58 1012.9
20260503022632 39 203 1.0 2.0 0.00 0.00 0.00 58 1012.9
20260503022132 39 180 2.0 2.0 0.00 0.00 0.00 57 1012.9
20260503021634 39 203 0.0 2.0 0.00 0.00 0.00 58 1012.9
20260503021133 39 203 2.0 2.0 0.00 0.00 0.00 59 1012.9
20260503020633 39 203 0.0 2.0 0.00 0.00 0.00 59 1012.9
20260503020132 40 203 2.0 2.0 0.00 0.00 0.00 57 1012.9
20260503015632 40 225 1.0 2.0 0.00 0.00 0.00 57 1012.9
20260503015133 40 225 1.0 2.0 0.00 0.00 0.00 57 1012.9
20260503014632 40 225 0.0 2.0 0.00 0.00 0.00 57 1012.9
20260503014132 40 225 0.0 2.0 0.00 0.00 0.00 57 1012.9
20260503013633 40 225 0.0 2.0 0.00 0.00 0.00 55 1012.5
20260503013132 41 203 0.0 2.0 0.00 0.00 0.00 53 1012.5
20260503012632 41 203 0.0 2.0 0.00 0.00 0.00 52 1012.5
20260503012133 41 225 0.0 2.0 0.00 0.00 0.00 53 1012.5
20260503011633 41 225 0.0 2.0 0.00 0.00 0.00 52 1012.5
20260503011133 42 203 0.0 2.0 0.00 0.00 0.00 53 1012.5
20260503010634 42 203 0.0 2.0 0.00 0.00 0.00 52 1012.5
20260503010135 42 225 1.0 2.0 0.00 0.00 0.00 51 1012.5
20260503005632 43 203 2.0 3.0 0.00 0.00 0.00 50 1012.5
20260503005132 43 225 0.0 4.0 0.00 0.00 0.00 50 1012.5
20260503004632 44 225 2.0 6.0 0.00 0.00 0.00 47 1012.5
20260503004132 44 203 2.0 6.0 0.00 0.00 0.00 46 1012.5
20260503003632 44 180 0.0 7.0 0.00 0.00 0.00 47 1012.2
20260503003134 45 225 2.0 7.0 0.00 0.00 0.00 41 1012.2
20260503002632 45 248 1.0 7.0 0.00 0.00 0.00 39 1012.2
20260503002133 46 225 0.0 7.0 0.00 0.00 0.00 40 1012.2
20260503001633 46 270 0.0 7.0 0.00 0.00 0.00 43 1012.2
20260503001138 46 270 0.0 7.0 0.00 0.00 0.00 41 1012.5
20260503000632 47 270 0.0 7.0 0.00 0.00 0.00 38 1012.5
20260503000132 47 270 1.0 7.0 0.00 0.00 0.00 36 1012.5
20260502235632 47 180 1.0 7.0 0.00 0.00 0.00 37 1012.5
20260502235132 47 0 2.0 7.0 0.00 0.00 0.00 36 1012.5
20260502234633 48 23 0.0 9.0 0.00 0.00 0.00 37 1012.5
20260502234132 48 248 2.0 9.0 0.00 0.00 0.00 33 1012.5
20260502233632 48 293 2.0 9.0 0.00 0.00 0.00 33 1012.5
20260502233132 49 315 2.0 9.0 0.00 0.00 0.00 34 1012.5
20260502232632 49 270 4.0 9.0 0.00 0.00 0.00 34 1012.5
20260502232132 50 203 2.0 9.0 0.00 0.00 0.00 37 1012.5
20260502231632 51 338 2.0 9.0 0.00 0.00 0.00 34 1012.5
20260502231132 51 315 2.0 9.0 0.00 0.00 0.00 32 1012.5
20260502230632 52 248 7.0 9.0 0.00 0.00 0.00 35 1012.5
20260502230132 52 225 2.0 9.0 0.00 0.00 0.00 34 1012.5
20260502225632 52 158 4.0 9.0 0.00 0.00 0.00 35 1012.5
20260502225133 52 203 4.0 9.0 0.00 0.00 0.00 33 1012.5
20260502224634 51 270 5.0 9.0 0.00 0.00 0.00 32 1012.5
20260502224132 52 225 6.0 8.0 0.00 0.00 0.00 32 1012.5
20260502223633 53 270 2.0 8.0 0.00 0.00 0.00 33 1012.9
20260502223133 53 315 2.0 8.0 0.00 0.00 0.00 34 1012.9
20260502222633 53 248 2.0 8.0 0.00 0.00 0.00 33 1012.9
20260502222133 51 113 2.0 8.0 0.00 0.00 0.00 34 1012.9
20260502221632 53 113 1.0 8.0 0.00 0.00 0.00 36 1012.9
20260502221132 53 180 4.0 8.0 0.00 0.00 0.00 36 1012.5
20260502220633 52 23 5.0 8.0 0.00 0.00 0.00 35 1012.5
20260502220133 53 225 4.0 8.0 0.00 0.00 0.00 35 1012.5
20260502215633 52 293 4.0 8.0 0.00 0.00 0.00 35 1012.5
20260502215132 51 203 8.0 8.0 0.00 0.00 0.00 35 1012.5
20260502214633 52 248 3.0 7.0 0.00 0.00 0.00 34 1012.5
20260502214132 52 338 4.0 7.0 0.00 0.00 0.00 34 1012.5
20260502213633 52 293 5.0 7.0 0.00 0.00 0.00 37 1012.5
20260502213132 53 315 5.0 7.0 0.00 0.00 0.00 34 1012.5
20260502212633 53 203 3.0 9.0 0.00 0.00 0.00 36 1012.5
20260502212132 53 180 2.0 9.0 0.00 0.00 0.00 34 1012.5
20260502211632 53 293 4.0 9.0 0.00 0.00 0.00 38 1012.5
20260502211132 52 293 3.0 9.0 0.00 0.00 0.00 37 1012.5
20260502210633 53 45 2.0 9.0 0.00 0.00 0.00 39 1012.5
20260502210132 53 0 4.0 9.0 0.00 0.00 0.00 40 1012.9
20260502205632 52 338 4.0 9.0 0.00 0.00 0.00 42 1012.9
20260502205132 51 68 4.0 9.0 0.00 0.00 0.00 39 1012.9
20260502204634 49 248 4.0 9.0 0.00 0.00 0.00 41 1012.9
20260502204133 50 270 3.0 9.0 0.00 0.00 0.00 41 1012.9
20260502203632 51 135 3.0 9.0 0.00 0.00 0.00 38 1013.2
20260502203132 51 293 4.0 9.0 0.00 0.00 0.00 38 1013.2
20260502202632 50 203 6.0 7.0 0.00 0.00 0.00 40 1013.2
20260502202132 49 338 2.0 7.0 0.00 0.00 0.00 44 1013.2
20260502201633 49 203 7.0 7.0 0.00 0.00 0.00 41 1013.2
20260502201132 49 225 5.0 7.0 0.00 0.00 0.00 39 1013.2
20260502200634 50 315 4.0 7.0 0.00 0.00 0.00 42 1013.2
20260502200133 50 270 4.0 7.0 0.00 0.00 0.00 42 1013.2
20260502195632 51 0 4.0 7.0 0.00 0.00 0.00 41 1013.2
20260502195132 49 45 2.0 7.0 0.00 0.00 0.00 43 1013.2
20260502194632 49 338 4.0 7.0 0.00 0.00 0.00 42 1013.2
20260502194132 49 315 4.0 7.0 0.00 0.00 0.00 43 1013.2